Leesburg, FL

5:32 PM EDT on April 19, 2018 (GMT -0400)
Leesburg Regional

Weather History for KLEE - October, 2011

Change the Weather History Date:

Monday, October 3, 2011

  Actual Average Record
Temperature  
Mean Temperature 70 °F -  
Max Temperature 84 °F 86 °F 94 °F (1990)
Min Temperature 55 °F 66 °F 52 °F (1984)
Cooling Degree Days 4    
Growing Degree Days 20 (Base 50)    
Moisture  
Dew Point 50 °F    
Average Humidity 53    
Maximum Humidity 75    
Minimum Humidity 27    
Precipitation  
Precipitation 0.00 in - - ()
Sea Level Pressure  
Sea Level Pressure 30.10 in    
Wind  
Wind Speed 6 mph (North)    
Max Wind Speed 8 mph    
Max Gust Speed -    
Visibility 10 miles    
Events      
Averages and records for this station are not official NWS values.
T = Trace of Precipitation, MM = Missing Value Source: NWS Daily Summary

Daily Weather History Graph

Daily Weather History Graph

Search for Another Location

Airport or City:

Astronomy

Oct. 03, 2011 Rise Set
Actual Time 7:21 AM EDT 7:10 PM EDT
Civil Twilight 6:57 AM EDT 7:34 PM EDT
Nautical Twilight 6:30 AM EDT 8:01 PM EDT
Astronomical Twilight 6:02 AM EDT 8:29 PM EDT
Moon 1:53 PM EDT (10/3) No Moon Set
Length of Visible Light 12h 36m
Length of Day
11h 49m
Waxing Crescent, 45% of the Moon is Illuminated
Oct 3
Waxing Crescent
Oct 3
First Quarter
Oct 11
Full
Oct 19
Last Quarter
Oct 26
New

Hourly Weather History & Observations

Time (EDT) Temp. Dew Point Humidity Pressure Visibility Wind Dir Wind Speed Gust Speed Precip Events Conditions
1:53 AM 62.1 °F 50.0 °F 65% 30.08 in 10.0 mi North 5.8 mph - N/A   Clear
2:53 AM 61.0 °F 46.9 °F 60% 30.08 in 10.0 mi North 8.1 mph - N/A   Clear
3:53 AM 60.1 °F 48.0 °F 64% 30.07 in 10.0 mi North 6.9 mph - N/A   Clear
4:53 AM 60.1 °F 46.9 °F 62% 30.07 in 10.0 mi North 8.1 mph - N/A   Clear
5:53 AM 60.1 °F 46.9 °F 62% 30.08 in 10.0 mi North 8.1 mph - N/A   Clear
6:53 AM 55.9 °F 48.0 °F 75% 30.09 in 10.0 mi NNW 3.5 mph - N/A   Clear
7:53 AM 57.9 °F 48.9 °F 72% 30.10 in 10.0 mi North 3.5 mph - N/A   Clear
8:34 AM 60.8 °F 46.4 °F 59% 30.12 in 10.0 mi NNE 8.1 mph - N/A   Partly Cloudy
8:53 AM 63.0 °F 46.9 °F 56% 30.13 in 10.0 mi North 8.1 mph - N/A   Clear
9:20 AM 66.2 °F 48.2 °F 52% 30.14 in 10.0 mi NNE 4.6 mph - N/A   Partly Cloudy
9:53 AM 70.0 °F 46.0 °F 42% 30.14 in 10.0 mi NNE 8.1 mph - N/A   Partly Cloudy
11:53 AM 78.1 °F 48.0 °F 35% 30.14 in 10.0 mi North 5.8 mph - N/A   Clear
12:53 PM 79.0 °F 51.1 °F 38% 30.12 in 10.0 mi WSW 3.5 mph - N/A   Clear
2:53 PM 82.0 °F 51.1 °F 34% 30.08 in 10.0 mi SSW 4.6 mph - N/A   Clear
3:53 PM 82.9 °F 48.9 °F 31% 30.07 in 10.0 mi SSW 3.5 mph - N/A   Clear
4:53 PM 84.0 °F 46.9 °F 27% 30.07 in 10.0 mi NW 3.5 mph - N/A   Clear
5:36 PM 82.4 °F 50.0 °F 32% 30.07 in 10.0 mi South 4.6 mph - N/A   Partly Cloudy
5:53 PM 82.0 °F 48.9 °F 31% 30.07 in 10.0 mi SSW 3.5 mph - N/A   Partly Cloudy
6:53 PM 75.9 °F 54.0 °F 46% 30.07 in 10.0 mi SW 3.5 mph - N/A   Clear
7:53 PM 71.1 °F 55.9 °F 59% 30.09 in 10.0 mi Calm Calm - N/A   Clear
9:53 PM 69.1 °F 57.0 °F 65% 30.13 in 10.0 mi NNE 3.5 mph - N/A   Clear
10:53 PM 68.0 °F 57.9 °F 70% 30.15 in 10.0 mi NNW 6.9 mph - N/A   Clear
11:53 PM 64.9 °F 57.0 °F 75% 30.15 in 10.0 mi NE 3.5 mph - N/A   Clear